Regional Weather Roundup
Issued by NWS

Home | Current Version | Previous Version | Text Only | Print | Product List | Glossary On
Versions: 1 2 3 4 5 6 7 8 9 10 11 12 13 14 15 16 17 18 19 20 21 22 23 24 25 26 27 28 29 30 31 32 33 34 35 36 37 38 39 40 41 42 43 44 45 46 47 48 49 50
000
ASUS43 KMPX 180210
RWRMN
WEATHER ROUNDUP FOR MINNESOTA
NATIONAL WEATHER SERVICE TWIN CITIES/CHANHASSEN MN
800 PM CST WED JAN 17 2018


NOTE: "FAIR" INDICATES FEW OR NO CLOUDS BELOW 12,000 FEET WITH NO
SIGNIFICANT WEATHER AND/OR OBSTRUCTIONS TO VISIBILITY. N/A MEANS
CURRENT SKY AND/OR WEATHER CONDITIONS ARE NOT AVAILABLE.

MNZ060>063-068>070-180300-
   Twin Cities Metro

CITY           SKY/WX    TMP DP  RH WIND       PRES   REMARKS
TWIN CITIES    FAIR      26  17  68 SW10      30.07F WCI  16
ST PAUL        FAIR      26  15  63 SW5       30.08F WCI  20
CRYSTAL        FAIR      27  13  55 SW12      30.05F WCI  17
BLAINE         CLEAR     28  18  64 SW9       30.04F WCI  20
LAKEVILLE      FAIR      25  18  74 SW9G16    30.08S WCI  15
EDEN PRAIRIE   FAIR      26  15  63 SW12      30.06F WCI  16
SOUTH ST PAUL  FAIR      27  16  62 SW5       30.08F WCI  22
LAKE ELMO      FAIR      27  18  69 SW12G17   30.06F WCI  16
$$
MNZ001>005-007-008-013>017-022>024-027-028-180300-
   Northwest Minnesota

CITY           SKY/WX    TMP DP  RH WIND       PRES   REMARKS
BEMIDJI        FAIR      29  21  72 SW10      29.87S WCI  19
HALLOCK        FAIR      30  25  80 SW15      29.80F WCI  19
ROSEAU         FAIR      28  23  80 SW16      29.78S WCI  17
WARROAD        FAIR      25  19  80 SW12      29.77S WCI  14
THIEF RVR FALL FAIR      25  21  85 SW14      29.87S WCI  13
CROOKSTON      FAIR      21  18  86 SW9       29.90F WCI  11
FOSSTON        FAIR      21  18  86 S13       29.90F WCI   9
DETROIT LAKES  FAIR      32  23  69 W12       29.96F WCI  23
MOORHEAD       FAIR      25  18  74 SW7       29.99S WCI  17
PARK RAPIDS    FAIR      20  13  74 W5        29.91F WCI  13
MAHNOMEN       FAIR      19  16  86 SW13      29.92F WCI   7
$$
MNZ006-009>011-018-025>026-180300-
   North Central Minnesota

CITY           SKY/WX    TMP DP  RH WIND       PRES   REMARKS
BAUDETTE       FAIR      25  19  78 SW12      29.76F WCI  14
FLAG ISLAND    FAIR      18  14  86 SW8       29.72F WCI   7
INTL FALLS     FAIR      21  13  71 SW6       29.78F WCI  13
WASKISH        FAIR      27  21  80 SW16G24   29.82F WCI  14
BIG FORK       FAIR      27  18  69 SW9       29.82F WCI  17
LONGVILLE      FAIR      25  16  68 SW6       29.90F WCI  18
GRAND RAPIDS   FAIR      25  16  68 W7        29.88F WCI  17
CRANE LAKE     FAIR      19  16  86 CALM      29.82F
ORR            FAIR      25  14  63 SW5       29.78F WCI  19
COOK           FAIR      21  14  73 SW3       29.82F
WALKER         FAIR      27  19  70 W12       29.88F WCI  17
$$
MNZ012-019>021-037-180300-
   Northeast Minnesota

CITY           SKY/WX    TMP DP  RH WIND       PRES   REMARKS
DULUTH         FAIR      24  13  62 W18       29.85S WCI  10
ELY            FAIR      23  14  68 SW6       29.81S WCI  16
HIBBING        FAIR      23  14  68 W5        29.84S WCI  17
EVELETH        FAIR      20  10  64 SW5       29.85F WCI  14
DULUTH HARBOR  FAIR      25  12  58 SW12      29.91R WCI  14
TWO HARBORS    FAIR      28  14  54 SW10      29.83S WCI  19
SILVER BAY     FAIR      27  12  54 SW6       29.81S WCI  20
GRAND MARAIS     N/A     26  14  60 W5        29.81S WCI  20
G MARAIS ARPRT FAIR      23  10  58 W7        29.75R WCI  15
$$
MNZ029>031-032-039>041-046>048-054>057-064-180300-
   West Central Minnesota

CITY           SKY/WX    TMP DP  RH WIND       PRES   REMARKS
FERGUS FALLS   FAIR      21  18  86 SW3       30.01S
WHEATON        CLOUDY    30  21  69 W12       30.05F WCI  21
MORRIS         CLOUDY    23  18  80 W8        30.03F WCI  14
ALEXANDRIA     FAIR      29  20  69 W14       30.00F WCI  18
ELBOW LAKE     FAIR      19  16  88 SW7       30.02F WCI  10
WADENA         FAIR      25  19  80 W13       29.95F WCI  13
GLENWOOD       FAIR      25  19  80 W13       30.02S WCI  13
APPLETON       CLOUDY    27  19  74 SW9       30.06F WCI  17
BENSON         CLOUDY    25  18  74 W9        30.06F WCI  15
ORTONVILLE     CLEAR     30  21  69 W12G17    30.05F WCI  21
MADISON        CLOUDY    30  21  69 W8        30.07F WCI  23
WILLMAR        FAIR      23  18  80 SW12      30.08F WCI  12
$$
MNZ033>034-036-042>043-049>051-058-059-180300-
   Central Minnesota

CITY           SKY/WX    TMP DP  RH WIND       PRES   REMARKS
ST CLOUD       FAIR      21  14  74 SW5       30.01F WCI  15
SAUK CENTRE      N/A     24  18  77 SW7       30.01F WCI  16
PAYNESVILLE    FAIR      25  20  81 SW13      30.03F WCI  14
PINE RIVER     FAIR      23  16  74 W5        29.96F WCI  17
BRAINERD       FAIR      25  16  68 SW10      29.95F WCI  15
STAPLES        FAIR      25  18  74 W12       29.96S WCI  14
LONG PRAIRIE   FAIR      25  19  80 S8        29.99F WCI  16
LITTLE FALLS   FAIR      21  12  68 CALM      29.99F
LITCHFIELD     FAIR      27  19  74 SW7       30.06S WCI  19
BUFFALO        FAIR      24  16  69 SW9       30.06S WCI  15
MAPLE LAKE     FAIR      27  19  72 MISG      30.05S
HUTCHINSON     FAIR      26  18  71 SW9G16    30.07F WCI  16
$$
MNZ037-044-045-052-053-180300-
   East Central Minnesota

CITY           SKY/WX    TMP DP  RH WIND       PRES   REMARKS
PRINCETON      FAIR      25  16  68 SW7       30.00F WCI  17
MORA           FAIR      25  16  68 SW6       29.99F WCI  18
CAMBRIDGE      FAIR      28  16  59 SW9G16    30.01F WCI  20
RUSH CITY      FAIR      25  15  66 SW10      29.99F WCI  15
MOOSE LAKE     FAIR      21  10  63 SW7       29.91S WCI  13
HINCKLEY       FAIR      23  16  74 SW10      29.96F WCI  12
CLOQUET        FAIR      25  10  54 W10       29.88S WCI  15
MCGREGOR       FAIR      27  18  69 SW7       29.92S WCI  19
$$
MNZ071>073-080-081-089-090-097-098-180300-
   Southwest Minnesota

CITY           SKY/WX    TMP DP  RH WIND       PRES   REMARKS
MONTEVIDEO     CLOUDY    27  18  69 W9        30.07F WCI  17
GRANITE FALLS  CLOUDY    27  19  72 SW12      30.10F WCI  17
CANBY          CLOUDY    31  21  66 SW18G26   30.08F WCI  19
MARSHALL       CLOUDY    24  18  77 W12       30.11F WCI  13
REDWOOD FALLS  CLOUDY    25  16  68 SW14      30.11F WCI  13
OLIVIA         CLOUDY    23  18  80 SW10      30.09F WCI  12
PIPESTONE      CLOUDY    19  12  73 W8        30.15S WCI   9
WINDOM         CLOUDY    27  10  50 SW14      30.13S WCI  15
WORTHINGTON    CLOUDY    25  17  72 SW24      30.13F WCI   9
JACKSON        CLOUDY    27  18  69 SW20G26   30.13F WCI  13
SLAYTON        CLOUDY    28  18  67 SW22      30.11S WCI  13
$$
MNZ065>067-074>077-082>085-091>093-180300-
   South Central Minnesota

CITY           SKY/WX    TMP DP  RH WIND       PRES   REMARKS
NEW ULM        CLOUDY    23  14  68 SW8       30.13S WCI  14
ST JAMES       CLOUDY    25  18  74 SW9       30.15F WCI  15
FAIRMONT       CLOUDY    26  18  71 SW18G26   30.13F WCI  13
FARIBAULT      FAIR      25  16  68 S12G17    30.11S WCI  14
OWATONNA       FAIR      23  16  74 SW17      30.12F WCI   9
WASECA         FAIR      23  18  80 SW13      30.14F WCI  11
ALBERT LEA     FAIR      23  14  68 SW13G20   30.14S WCI  11
$$
MNZ078>079-086>088-094>096-180300-
   Southeast Minnesota

CITY           SKY/WX    TMP DP  RH WIND       PRES   REMARKS
ROCHESTER      FAIR      20  13  74 SW22G32   30.11S WCI   3
RED WING       FAIR      27  12  54 W8        30.10S WCI  18
STANTON        FAIR      26  17  69 SW15      30.08F WCI  13
DODGE CENTER   FAIR      19  14  79 SW20      30.10F WCI   4
WINONA         FAIR      25  14  63 SW10      30.12F WCI  15
AUSTIN         FAIR      19  12  73 SW8       30.15S WCI   9
PRESTON        FAIR      20  12  70 SW17      30.14S WCI   5
$$
ABBREVIATIONS USED IN REMARKS
   TC - TEMPERATURES IN CELSIUS
  WCI - WIND CHILL INDEX
   HX - HEAT INDEX
  VSB - VISIBILITY
$$



USA.gov is the U.S. government's official web portal to all federal, state and local government web resources and services.